[[{"header":{"parameterUnit":"m.s-1","parameterCategory":1,"la1":30.2991,"la2":30.254,"lo1":-89.0895,"lo2":-89.0444,"dy":0.0017,"dx":0.0017,"nx":28,"ny":28,"refTime":"2023-09-12T03:00:00:Z","depth":0,"parameterNumber":2,"parameterNumberName":"U-component_of_WINDS"},"data":[0,0,0,0,0,0,0,0,0,0,0,0,0,0,0,0,0,0,0,0,0,0,0,0,0,0,0,0,0,0,0,0,0,0,0,0,0,0,0,0,0,0,0,0,0,0,0,0,0,0,0,0,0,0,0,0,0,0,-3.3987,-3.3985,0,-3.3748,-3.3745,-3.3742,-3.3497,-3.3494,-3.3491,-3.3488,-3.3236,-3.3233,-3.3229,0,0,0,0,0,0,0,0,0,0,0,0,0,-3.4225,-3.4222,-3.3987,-3.3984,-3.3981,-3.3748,-3.3745,-3.3742,-3.3498,-3.3494,-3.349,-3.3486,-3.3238,-3.3233,-3.3229,0,0,0,0,0,0,0,0,0,0,0,0,0,-3.4068,-3.4221,-3.3988,-3.3832,-3.3815,-3.3749,-3.3745,-3.3741,-3.3499,-3.3494,-3.3489,-3.3484,-3.3239,-3.3234,-3.3228,-3.3295,0,0,-3.3212,-3.321,0,0,0,0,0,0,0,0,-3.4077,-3.4059,-3.3858,-3.3842,-3.3824,-3.3648,-3.3736,-3.3591,-3.35,-3.3619,-3.3488,-3.3482,-3.3377,-3.336,-3.3326,-3.3283,-3.3272,-3.3211,-3.3208,-3.3206,-3.3204,0,0,0,0,0,0,0,-3.4088,-3.4068,-3.3892,-3.3855,-3.3834,-3.3771,-3.3743,-3.3708,-3.3528,-3.3608,-3.359,-3.3565,-3.3367,-3.3331,-3.3318,-3.3268,-3.3212,-3.3207,-3.3203,-3.3201,-3.3263,-3.3268,0,0,0,0,0,0,-3.4124,-3.4079,-3.39,-3.3885,-3.3941,-3.3771,-3.374,-3.3709,-3.3528,-3.3496,-3.357,-3.3555,-3.3343,-3.3324,-3.3308,-3.337,-3.3206,-3.3201,-3.3198,-3.3258,-3.3264,-3.3269,0,0,0,0,0,0,-3.413,-3.411,-3.3909,-3.3977,-3.3946,-3.3772,-3.374,-3.3707,-3.3671,-3.3499,-3.3465,-3.3567,-3.3338,-3.3316,-3.3299,-3.3358,-3.3198,-3.3194,-3.3253,-3.326,-3.3267,-3.3499,0,0,0,0,0,0,-3.4138,-3.4114,-3.4139,-3.3979,-3.3944,-3.3908,-3.3743,-3.3706,-3.3664,-3.3642,-3.3488,-3.3458,-3.3333,-3.3309,-3.3294,-3.3348,-3.3189,-3.3246,-3.3256,-3.3265,-3.3485,-3.3513,-3.3537,0,0,0,0,0,-3.4147,-3.4214,-3.4142,-3.4122,-3.3973,-3.3912,-3.3891,-3.3748,-3.367,-3.3692,-3.3581,-3.3462,-3.3355,-3.3309,-3.329,-3.3344,-3.3242,-3.3253,-3.3264,-3.3473,-3.3508,-3.3537,0,0,0,0,0,0,-3.4384,-3.419,-3.4108,-3.4126,-3.4038,-3.3871,-3.3895,-3.379,-3.372,-3.3703,-3.3526,-3.3493,-3.3496,-3.3418,-3.337,-3.3396,-3.3281,-3.3289,-3.3447,-3.3478,-3.3504,-3.3522,-3.3185,0,0,0,0,0,-3.4438,-3.4408,-3.4239,-3.427,-3.423,-3.4072,-3.404,-3.3937,-3.3837,-3.3798,-3.3686,-3.3592,-3.3536,-3.3503,-3.3442,-3.3473,-3.3434,-3.35,-3.3527,-3.3549,-3.3557,-3.3563,-3.359,-3.3305,-3.3305,-3.3305,0,0,-3.455,-3.444,-3.4431,-3.4315,-3.4234,-3.4204,-3.4041,-3.4016,-3.3991,-3.3793,-3.3771,-3.3686,-3.3568,-3.3575,-3.3572,-3.351,-3.3627,-3.3563,-3.3582,-3.3577,-3.3577,-3.3604,-3.3629,-3.3313,-3.3312,-3.331,0,0,-3.4737,-3.4653,-3.4668,-3.4591,-3.4471,-3.4365,-3.4369,-3.4218,-3.4154,-3.4129,-3.3979,-3.3945,-3.3854,-3.3776,-3.3724,-3.388,-3.3767,-3.3865,-3.4001,-3.4009,-3.4032,-3.4051,-3.4103,-3.4125,-3.3874,-3.3875,-3.3875,0,-3.489,-3.484,-3.4689,-3.4672,-3.4624,-3.4446,-3.4458,-3.439,-3.4257,-3.4226,-3.4159,-3.4039,-3.3948,-3.3932,-3.397,-3.3935,-3.3931,-3.3881,-3.4041,-3.4059,-3.4074,-3.4122,-3.4143,-3.3887,-3.3886,-3.3885,-3.3884,0,-3.5033,-3.5,-3.5027,-3.4904,-3.4858,-3.4857,-3.4702,-3.4674,-3.4575,-3.4475,-3.445,-3.4334,-3.4246,-3.4235,-3.4138,-3.4204,-3.4169,-3.4075,-3.3955,-3.4116,-3.4158,-3.4176,-3.3905,-3.3901,-3.3897,-3.3894,0,0,-3.5362,-3.5155,-3.5167,-3.5107,-3.4962,-3.4932,-3.4921,-3.4837,-3.4814,-3.4728,-3.4712,-3.4638,-3.4549,-3.4491,-3.4383,-3.4391,-3.4518,-3.4294,-3.4288,-3.4337,-3.458,-3.4651,-3.4675,-3.4443,-3.4446,-3.4448,-3.4588,0,-3.5522,-3.5493,-3.5356,-3.5366,-3.5332,-3.5162,-3.5151,-3.506,-3.4965,-3.492,-3.4814,-3.4764,-3.4652,-3.4615,-3.4615,-3.4503,-3.4564,-3.4491,-3.4422,-3.4422,-3.4455,-3.4697,-3.4772,-3.491,-3.4604,-3.4607,-3.4609,0,-3.5704,-3.5631,-3.5639,-3.5492,-3.5472,-3.5466,-3.5376,-3.5336,-3.5227,-3.5157,-3.5093,-3.4972,-3.4946,-3.4837,-3.4798,-3.4751,-3.4715,-3.4655,-3.4657,-3.4643,-3.4524,-3.4687,-3.4951,-3.4971,-3.4634,-3.4632,-3.463,0,-3.5941,-3.5843,-3.5834,-3.5789,-3.5619,-3.5617,-3.5546,-3.5432,-3.5389,-3.5309,-3.5278,-3.5197,-3.5152,-3.509,-3.4948,-3.4882,-3.4924,-3.4803,-3.4862,-3.4866,-3.4877,-3.4878,-3.5137,-3.4859,-3.4859,-3.4858,-3.4858,0,-3.6132,-3.6143,-3.5938,-3.5933,-3.5939,-3.5779,-3.5788,-3.57,-3.56,-3.5571,-3.5419,-3.5395,-3.5211,-3.5165,-3.5055,-3.5037,-3.5018,-3.4958,-3.4928,-3.4971,-3.4978,-3.4943,-3.4929,-3.4863,-3.4862,-3.4861,-3.486,0,-3.6396,-3.626,-3.6238,-3.6079,-3.6038,-3.605,-3.591,-3.5897,-3.5793,-3.5759,-3.5742,-3.5578,-3.5516,-3.537,-3.5269,-3.5194,-3.5204,-3.5151,-3.5242,-3.5222,-3.5289,-3.5284,-3.5532,-3.5555,-3.5266,-3.5269,-3.5272,0,-3.6526,-3.6531,-3.6372,-3.6343,-3.6278,-3.6233,-3.6189,-3.6031,-3.599,-3.5865,-3.5866,-3.5793,-3.5725,-3.5633,-3.5503,-3.5424,-3.5366,-3.5458,-3.5353,-3.5394,-3.5363,-3.5364,-3.5362,-3.5481,-3.5485,-3.5488,-3.5491,0,-3.6771,-3.6703,-3.6646,-3.6566,-3.6517,-3.6445,-3.6365,-3.6349,-3.6171,-3.6132,-3.6068,-3.6016,-3.5912,-3.584,-3.5741,-3.5662,-3.5546,-3.5526,-3.5534,-3.5577,-3.5628,-3.5598,-3.5303,-3.552,-3.5517,-3.5515,-3.5513,-3.5512,-3.6969,-3.6965,-3.6852,-3.6792,-3.6715,-3.6643,-3.6622,-3.6516,-3.6461,-3.6366,-3.6275,-3.6219,-3.6106,-3.5961,-3.589,-3.5842,-3.5783,-3.5797,-3.5799,-3.5805,-3.5823,-3.5639,-3.5823,-3.5822,-3.5821,-3.582,-3.5819,0,-3.7204,-3.7123,-3.707,-3.6963,-3.6916,-3.6813,-3.6718,-3.6684,-3.6638,-3.6544,-3.648,-3.6405,-3.6333,-3.6198,-3.6113,-3.61,-3.6044,-3.6083,-3.6081,-3.6064,-3.5881,-3.5881,-3.6129,-3.6129,-3.6129,-3.6129,-3.6129,-3.6129,-3.732,-3.7306,-3.7224,-3.7169,-3.7085,-3.7032,-3.6986,-3.6917,-3.684,-3.6764,-3.6704,-3.6617,-3.6505,-3.6411,-3.6339,-3.63,-3.6275,-3.6331,-3.6275,-3.6107,-3.6077,-3.6049,-3.6048,-3.6327,-3.6328,-3.6461,-3.6462,-3.6463]},{"header":{"parameterUnit":"m.s-1","parameterCategory":1,"la1":30.2991,"la2":30.254,"lo1":-89.0895,"lo2":-89.0444,"dy":0.0017,"dx":0.0017,"nx":28,"ny":28,"refTime":"2023-09-12T03:00:00:Z","depth":0,"parameterNumber":3,"parameterNumberName":"V-component_of_WINDS"},"data":[0,0,0,0,0,0,0,0,0,0,0,0,0,0,0,0,0,0,0,0,0,0,0,0,0,0,0,0,0,0,0,0,0,0,0,0,0,0,0,0,0,0,0,0,0,0,0,0,0,0,0,0,0,0,0,0,0,0,-1.136,-1.1361,0,-1.1409,-1.141,-1.141,-1.1417,-1.1416,-1.1416,-1.1416,-1.1463,-1.1465,-1.1466,0,0,0,0,0,0,0,0,0,0,0,0,0,-1.1271,-1.1272,-1.136,-1.1361,-1.1361,-1.1409,-1.141,-1.141,-1.1417,-1.1416,-1.1416,-1.1415,-1.1463,-1.1465,-1.1467,0,0,0,0,0,0,0,0,0,0,0,0,0,-1.1313,-1.1273,-1.136,-1.1371,-1.1372,-1.1409,-1.141,-1.141,-1.1417,-1.1416,-1.1416,-1.1415,-1.1462,-1.1464,-1.1467,-1.1496,0,0,-1.1475,-1.1476,0,0,0,0,0,0,0,0,-1.1311,-1.1317,-1.1368,-1.137,-1.1372,-1.1406,-1.1395,-1.1439,-1.1417,-1.14,-1.1416,-1.1415,-1.1445,-1.1449,-1.1459,-1.1498,-1.15,-1.1475,-1.1476,-1.1477,-1.1478,0,0,0,0,0,0,0,-1.1308,-1.1315,-1.1379,-1.1369,-1.1371,-1.1372,-1.1377,-1.1404,-1.1425,-1.1401,-1.1402,-1.1408,-1.1445,-1.1457,-1.146,-1.1501,-1.1475,-1.1477,-1.1479,-1.148,-1.1567,-1.1567,0,0,0,0,0,0,-1.1303,-1.1312,-1.1378,-1.1381,-1.1339,-1.1374,-1.138,-1.1396,-1.1425,-1.1429,-1.1408,-1.1408,-1.1453,-1.1457,-1.1462,-1.1498,-1.1477,-1.148,-1.1481,-1.1566,-1.1567,-1.1568,0,0,0,0,0,0,-1.1301,-1.1309,-1.1376,-1.1347,-1.1355,-1.1377,-1.1394,-1.1397,-1.1408,-1.143,-1.1434,-1.1416,-1.1452,-1.1458,-1.1488,-1.15,-1.1481,-1.1483,-1.1565,-1.1566,-1.1567,-1.1571,0,0,0,0,0,0,-1.1299,-1.1308,-1.132,-1.1347,-1.1357,-1.1401,-1.1395,-1.1398,-1.1413,-1.1413,-1.1439,-1.1442,-1.1452,-1.1484,-1.149,-1.1503,-1.1485,-1.1564,-1.1565,-1.1567,-1.157,-1.1572,-1.1574,0,0,0,0,0,-1.1296,-1.1319,-1.1321,-1.1329,-1.1372,-1.1402,-1.1408,-1.142,-1.1414,-1.1426,-1.144,-1.1441,-1.1498,-1.1487,-1.1494,-1.1508,-1.1563,-1.1565,-1.1567,-1.1569,-1.1572,-1.1574,0,0,0,0,0,0,-1.1292,-1.1322,-1.1325,-1.1358,-1.1377,-1.1403,-1.1418,-1.1422,-1.1443,-1.1442,-1.1455,-1.1461,-1.149,-1.1502,-1.1489,-1.1538,-1.153,-1.1533,-1.1529,-1.1532,-1.1534,-1.153,-1.1487,0,0,0,0,0,-1.1295,-1.1318,-1.1343,-1.1369,-1.1379,-1.1397,-1.141,-1.1418,-1.1439,-1.1447,-1.1463,-1.1482,-1.1504,-1.1519,-1.154,-1.1571,-1.1577,-1.1584,-1.1587,-1.1588,-1.1591,-1.1609,-1.1612,-1.1573,-1.1573,-1.1573,0,0,-1.1301,-1.1321,-1.1334,-1.1369,-1.1385,-1.1408,-1.1404,-1.1428,-1.1445,-1.145,-1.1479,-1.1492,-1.1514,-1.1545,-1.1559,-1.1556,-1.1603,-1.1591,-1.1592,-1.1594,-1.1611,-1.1615,-1.1618,-1.1575,-1.1574,-1.1574,0,0,-1.1325,-1.1342,-1.1366,-1.1382,-1.1407,-1.1419,-1.1425,-1.145,-1.1459,-1.1489,-1.1494,-1.1513,-1.1551,-1.1567,-1.158,-1.161,-1.1612,-1.1616,-1.1628,-1.1645,-1.1648,-1.1651,-1.1662,-1.1666,-1.1619,-1.1619,-1.1619,0,-1.1329,-1.1364,-1.1377,-1.1401,-1.1416,-1.1423,-1.1448,-1.1463,-1.1493,-1.1503,-1.1499,-1.1547,-1.1562,-1.1597,-1.1604,-1.1614,-1.1621,-1.1614,-1.1647,-1.165,-1.1652,-1.1663,-1.1667,-1.1619,-1.1619,-1.1619,-1.1619,0,-1.1369,-1.1393,-1.1409,-1.1439,-1.1456,-1.148,-1.1496,-1.1512,-1.1518,-1.153,-1.156,-1.1579,-1.1605,-1.1613,-1.1619,-1.1649,-1.1646,-1.1644,-1.1636,-1.1656,-1.1666,-1.1671,-1.162,-1.162,-1.162,-1.162,0,0,-1.1391,-1.1428,-1.1434,-1.1448,-1.1477,-1.1495,-1.1519,-1.1545,-1.1558,-1.1579,-1.16,-1.1632,-1.163,-1.1645,-1.1653,-1.1668,-1.1691,-1.1664,-1.1665,-1.1669,-1.1725,-1.1727,-1.1731,-1.1692,-1.1693,-1.1694,-1.1724,0,-1.1417,-1.1462,-1.1474,-1.1512,-1.1534,-1.1541,-1.1562,-1.1582,-1.1594,-1.1614,-1.1627,-1.165,-1.1646,-1.1655,-1.167,-1.1685,-1.1702,-1.1683,-1.1711,-1.1712,-1.1706,-1.1737,-1.1738,-1.1766,-1.1728,-1.1728,-1.1729,0,-1.1455,-1.1477,-1.1517,-1.1543,-1.1553,-1.1572,-1.1597,-1.1617,-1.1638,-1.1646,-1.1663,-1.1669,-1.1695,-1.1685,-1.172,-1.1707,-1.1719,-1.1728,-1.1729,-1.1732,-1.1722,-1.1741,-1.1774,-1.1779,-1.1735,-1.1735,-1.1734,0,-1.1467,-1.1507,-1.1537,-1.1548,-1.1579,-1.1592,-1.1606,-1.1627,-1.1642,-1.1664,-1.1674,-1.1698,-1.1711,-1.1729,-1.1742,-1.1734,-1.1775,-1.1767,-1.1782,-1.1782,-1.1791,-1.179,-1.1827,-1.1798,-1.1798,-1.1798,-1.1798,0,-1.1496,-1.152,-1.1543,-1.1561,-1.1588,-1.1602,-1.1628,-1.1642,-1.1661,-1.1681,-1.1688,-1.1707,-1.1722,-1.1743,-1.1753,-1.178,-1.1786,-1.1793,-1.1795,-1.1793,-1.1792,-1.1801,-1.18,-1.1799,-1.1799,-1.1799,-1.1799,0,-1.1514,-1.1531,-1.1563,-1.159,-1.1597,-1.1616,-1.1639,-1.1657,-1.1669,-1.1695,-1.1702,-1.1721,-1.1746,-1.176,-1.1791,-1.1798,-1.1829,-1.183,-1.1822,-1.1823,-1.1837,-1.1836,-1.1882,-1.1889,-1.1855,-1.1855,-1.1855,0,-1.1532,-1.1551,-1.158,-1.1595,-1.1609,-1.1632,-1.1648,-1.1662,-1.1678,-1.1705,-1.1719,-1.1745,-1.1766,-1.1806,-1.1822,-1.1846,-1.1848,-1.1862,-1.1852,-1.1848,-1.1849,-1.1848,-1.185,-1.1864,-1.1865,-1.1865,-1.1865,0,-1.1561,-1.1568,-1.1591,-1.1617,-1.1636,-1.1657,-1.1678,-1.1689,-1.1707,-1.1724,-1.1751,-1.1767,-1.18,-1.1825,-1.185,-1.1863,-1.1867,-1.1868,-1.1873,-1.1871,-1.1865,-1.1869,-1.1827,-1.1867,-1.1867,-1.1867,-1.1867,-1.1867,-1.1579,-1.1597,-1.1621,-1.1646,-1.1664,-1.1683,-1.1701,-1.1716,-1.1739,-1.1767,-1.1774,-1.1801,-1.1823,-1.1858,-1.1872,-1.1893,-1.1891,-1.1897,-1.1899,-1.1901,-1.1902,-1.1862,-1.1898,-1.1898,-1.1898,-1.1898,-1.1898,0,-1.1609,-1.1625,-1.1649,-1.1678,-1.1698,-1.1701,-1.1724,-1.174,-1.1765,-1.1785,-1.1807,-1.1837,-1.1862,-1.1881,-1.1906,-1.1919,-1.1922,-1.1926,-1.1925,-1.1928,-1.1902,-1.1896,-1.1923,-1.1923,-1.1923,-1.1923,-1.1923,-1.1923,-1.1627,-1.1657,-1.1667,-1.1706,-1.1721,-1.1749,-1.1762,-1.178,-1.1797,-1.1831,-1.1852,-1.1864,-1.1884,-1.1911,-1.1934,-1.1939,-1.1948,-1.1952,-1.1957,-1.1932,-1.193,-1.1927,-1.1921,-1.1953,-1.1953,-1.1981,-1.1981,-1.1981]}]]